NOAA 16 DEB, 41277

Orbit data source: Space-Track

NOAA 16 DEB, 41277 is space debris in SSO originally from a launch on Thu, 21 Sep 2000 UTC launched from the Air Force Western Test Range (AFWTR). Debris objects in space refer to the collection of defunct objects orbiting the Earth. Examples of debris include non-operational satellites, rocket bodies, and fragments generated from explosions, collisions, or faulty payload assembly.

Loading next visibility...
Identifier
41277, 2000-055GD
Orbit
SSO
Country
Flag of USUS
Related business
Manufacturer
Unknown
Mission
Spacecraft
Bus & Motor
Unknown
Mass
Unknown
Launch date (UTC)
2000-09-21 (26 years ago)
Launch vehicle
Unknown
Launch site
Air Force Western Test Range (AFWTR)
Object type
Payload
Rocket body
Debris
Shape & HBR
Unknown shape, 0.1 m
Radar Cross Section
Small (<0.1 m²)

Expand to show TLE details & history
Last TLE update: 5 hours ago

TLE from 5 hours ago
0 NOAA 16 DEB
1 41277U 00055GD  26126.52580358  .00005414  00000-0  13245-2 0  9995
2 41277  98.9801 333.5901 0029616 250.0759 109.7244 14.52707132540439
Epoch: 2026-05-06T12:37Z
TLE epoch observation values (Epoch: 2026-05-06T12:37:09.429Z)
Latitude
0.00006°
Longitude
-80.08423°
Altitude
726.919 km
Speed
7.488 km/s
True Right ascension
22h 14m 21s
True Declination
0° 00' 00"
Sunlit
Object was in daylight at epoch
Visualization orbit readout
Latitude
Unknown
Longitude
Unknown
Altitude
Unknown
Speed
Unknown
Apparent Right ascension
Unknown
Apparent Declination
Unknown
Sunlit
N/A
Visualization observer readout
Local Sidereal Time
01:17:36
Azimuth
Unknown
Elevation
Unknown
Doppler factor
Unknown
Orbital elements
Apogee altitude
734.953 km
Perigee altitude
692.945 km
Semi-major axis
7,092.086 km
Eccentricity
0.00296
Inclination
98.9801°
RAAN
333.5901°
Arg. of periapsis
250.0759°
True anomaly
110.04346°
Mean anomaly
109.7244°
Eccentric anomaly
109.88397°
Mean motion
3.63398 °/min
Orbital period
99.07 mins
BSTAR
0.0013245
Loading maneuver chart data...
Computing Atmospheric mass density...
Loading historical data...
Loading historical data...
Loading historical data...
Loading historical data...
Loading historical data...
Loading historical data...
Loading historical data...

Documentation

Showing up to 5 results
|